Date String (YYYY-MM-DD hh:mm:ss) UTC,Instrument flags,Ambient pressure (hPa),Sample flow (lpm),Bypass flow (lpm),Sample temperature (°C),Ambient temperature (°C),ASC tube jacket temperature (°C),LED temperature (°C),Box temperature (°C),Sample RH (%),Span deviation,Mass concentration (μg/m³),Mass concentration (μg/m³),Mass concentration (μg/m³)
DateTimeUTC,F1_M11,P_M11,Q1_M11,Q2_M11,T1_M11,T2_M11,T3_M11,T4_M11,T5_M11,U1_M11,ZSPAN_M11,X2_M11,X0_M11,X1_M11
2022-10-19 16:00:00,,0833.2,4.99,0.00,28.1,27.0,00.0,36.8,30.0,10.0,0000.0,0001.93,0007.46,0000.98
2022-10-19 16:01:00,,0833.1,5.01,0.00,28.1,27.0,00.0,36.8,30.0,10.0,0000.0,0001.96,0007.70,0000.98
2022-10-19 16:02:00,,0833.1,4.99,0.00,28.1,27.0,00.0,36.8,30.0,09.9,0000.0,0001.94,0007.63,0000.97
2022-10-19 16:03:00,,0833.1,5.01,0.00,28.1,27.0,00.0,36.8,30.1,09.9,0000.0,0001.92,0007.70,0000.96
2022-10-19 16:04:00,,0833.1,4.99,0.00,28.1,27.0,00.0,36.8,30.1,10.1,0000.0,0001.90,0007.94,0000.96
2022-10-19 16:05:00,,0833.1,5.01,0.00,28.2,27.1,00.0,36.9,30.1,10.0,0000.0,0001.90,0007.94,0000.96
2022-10-19 16:06:00,,0833.1,4.98,0.00,28.2,27.1,00.0,36.9,30.1,10.0,0000.0,0001.91,0007.90,0000.96
2022-10-19 16:07:00,,0833.1,5.00,0.00,28.2,27.1,00.0,36.9,30.1,09.7,0000.0,0001.89,0008.26,0000.95
2022-10-19 16:08:00,,0833.1,5.01,0.00,28.2,27.1,00.0,36.9,30.1,09.6,0000.0,0001.85,0008.02,0000.94
2022-10-19 16:09:00,,0833.1,5.00,0.00,28.2,27.1,00.0,36.9,30.1,09.2,0000.0,0001.76,0007.55,0000.93
2022-10-19 16:10:00,,0833.1,4.99,0.00,28.2,27.2,00.0,36.9,30.1,09.6,0000.0,0001.81,0008.03,0000.93
2022-10-19 16:11:00,,0833.1,5.01,0.00,28.3,27.2,00.0,36.9,30.2,09.4,0000.0,0001.86,0008.23,0000.93
2022-10-19 16:12:00,,0833.0,4.99,0.00,28.3,27.2,00.0,37.0,30.2,09.2,0000.0,0001.88,0008.01,0000.93
2022-10-19 16:13:00,,0833.1,4.99,0.00,28.3,27.2,00.0,37.0,30.2,09.3,0000.0,0001.84,0008.50,0000.92
2022-10-19 16:14:00,,0833.0,5.01,0.00,28.3,27.2,00.0,37.0,30.2,09.2,0000.0,0001.85,0008.56,0000.91
2022-10-19 16:15:00,,0833.0,4.99,0.00,28.4,27.3,00.0,37.0,30.2,09.0,0000.0,0001.88,0008.01,0000.91
2022-10-19 16:16:00,,0833.1,5.01,0.00,28.4,27.3,00.0,37.1,30.2,09.1,0000.0,0001.93,0008.56,0000.90
2022-10-19 16:17:00,,0833.0,4.99,0.00,28.4,27.3,00.0,37.1,30.3,09.0,0000.0,0001.94,0008.97,0000.89
2022-10-19 16:18:00,,0833.0,5.01,0.00,28.4,27.3,00.0,37.1,30.3,09.1,0000.0,0001.92,0008.93,0000.88
2022-10-19 16:19:00,,0833.0,5.01,0.00,28.4,27.4,00.0,37.1,30.3,09.3,0000.0,0001.98,0008.59,0000.88
2022-10-19 16:20:00,,0833.1,5.00,0.00,28.5,27.4,00.0,37.1,30.3,09.4,0000.0,0002.08,0008.65,0000.88
2022-10-19 16:21:00,,0833.0,4.98,0.00,28.5,27.4,00.0,37.2,30.3,09.4,0000.0,0002.07,0009.03,0000.88
2022-10-19 16:22:00,,0833.0,5.01,0.00,28.5,27.4,00.0,37.2,30.4,09.4,0000.0,0002.14,0010.77,0000.87
2022-10-19 16:23:00,,0833.0,5.01,0.00,28.5,27.5,00.0,37.2,30.4,09.1,0000.0,0002.18,0011.69,0000.85
2022-10-19 16:24:00,,0833.0,4.99,0.00,28.6,27.5,00.0,37.2,30.4,09.3,0000.0,0002.22,0011.61,0000.85
2022-10-19 16:25:00,,0833.0,5.01,0.00,28.6,27.5,00.0,37.3,30.4,09.4,0000.0,0002.30,0012.36,0000.85
2022-10-19 16:26:00,,0833.1,5.00,0.00,28.6,27.5,00.0,37.3,30.5,08.8,0000.0,0002.32,0013.10,0000.84
2022-10-19 16:27:00,,0833.1,5.00,0.00,28.6,27.5,00.0,37.3,30.5,08.3,0000.0,0002.26,0012.62,0000.83
2022-10-19 16:28:00,,0833.0,5.01,0.00,28.7,27.6,00.0,37.3,30.5,08.0,0000.0,0002.18,0012.11,0000.82
2022-10-19 16:29:00,,0833.1,4.99,0.00,28.7,27.6,00.0,37.3,30.5,08.1,0000.0,0002.15,0011.81,0000.81
2022-10-19 16:30:00,,0833.1,5.02,0.00,28.7,27.6,00.0,37.4,30.5,08.0,0000.0,0002.09,0011.94,0000.80
2022-10-19 16:31:00,,0833.0,4.99,0.00,28.7,27.6,00.0,37.4,30.6,08.0,0000.0,0002.04,0011.80,0000.78
2022-10-19 16:32:00,,0833.0,5.01,0.00,28.7,27.6,00.0,37.4,30.6,08.2,0000.0,0002.00,0010.90,0000.77
2022-10-19 16:33:00,,0833.0,5.01,0.00,28.8,27.7,00.0,37.4,30.6,08.4,0000.0,0001.92,0009.40,0000.77
2022-10-19 16:34:00,,0833.0,4.98,0.00,28.8,27.7,00.0,37.5,30.6,08.3,0000.0,0001.82,0009.36,0000.77
2022-10-19 16:35:00,,0833.0,5.01,0.00,28.8,27.7,00.0,37.5,30.7,08.4,0000.0,0001.79,0009.32,0000.78
2022-10-19 16:36:00,,0833.0,4.99,0.00,28.8,27.7,00.0,37.5,30.7,08.4,0000.0,0001.75,0008.76,0000.78
2022-10-19 16:37:00,,0833.0,5.01,0.00,28.9,27.8,00.0,37.5,30.7,08.3,0000.0,0001.68,0008.28,0000.78
2022-10-19 16:38:00,,0833.0,4.99,0.00,28.9,27.8,00.0,37.5,30.7,09.0,0000.0,0001.64,0008.12,0000.78
2022-10-19 16:39:00,,0833.0,5.00,0.00,28.9,27.8,00.0,37.6,30.8,09.3,0000.0,0001.70,0008.19,0000.79
2022-10-19 16:40:00,,0833.0,4.99,0.00,28.9,27.8,00.0,37.6,30.8,09.5,0000.0,0001.75,0008.32,0000.80
2022-10-19 16:41:00,,0833.0,5.00,0.00,28.9,27.8,00.0,37.6,30.8,09.7,0000.0,0001.79,0008.29,0000.81
2022-10-19 16:42:00,,0833.0,5.00,0.00,29.0,27.9,00.0,37.6,30.9,09.6,0000.0,0001.81,0008.65,0000.82
2022-10-19 16:43:00,,0833.0,5.01,0.00,29.0,27.9,00.0,37.7,30.9,09.6,0000.0,0001.82,0009.37,0000.83
2022-10-19 16:44:00,,0833.0,4.99,0.00,29.0,27.9,00.0,37.7,30.8,09.3,0000.0,0001.87,0010.25,0000.85
2022-10-19 16:45:00,,0833.0,5.01,0.00,29.0,27.9,00.0,37.7,30.9,09.0,0000.0,0001.90,0009.83,0000.85
2022-10-19 16:46:00,,0832.9,5.01,0.00,29.0,27.9,00.0,37.7,30.9,09.1,0000.0,0001.93,0009.46,0000.86
2022-10-19 16:47:00,,0832.9,4.98,0.00,29.1,27.9,00.0,37.7,30.9,09.1,0000.0,0001.92,0009.36,0000.86
2022-10-19 16:48:00,,0832.8,5.01,0.00,29.1,27.9,00.0,37.8,30.9,09.1,0000.0,0001.91,0009.19,0000.86
2022-10-19 16:49:00,,0832.9,5.00,0.00,29.1,28.0,00.0,37.8,30.9,08.8,0000.0,0001.92,0009.44,0000.87
2022-10-19 16:50:00,,0832.9,4.99,0.00,29.1,28.0,00.0,37.8,31.0,08.7,0000.0,0001.91,0009.44,0000.86
2022-10-19 16:51:00,,0832.9,5.01,0.00,29.1,28.0,00.0,37.8,31.0,08.7,0000.0,0001.83,0009.79,0000.85
2022-10-19 16:52:00,,0832.9,4.98,0.00,29.1,28.0,00.0,37.8,31.0,08.4,0000.0,0001.76,0009.69,0000.85
2022-10-19 16:53:00,,0832.9,5.01,0.00,29.2,28.0,00.0,37.9,31.0,08.4,0000.0,0001.78,0009.94,0000.85
2022-10-19 16:54:00,,0832.8,5.01,0.00,29.2,28.0,00.0,37.9,31.0,08.4,0000.0,0001.78,0009.32,0000.84
2022-10-19 16:55:00,,0832.9,4.99,0.00,29.2,28.1,00.0,37.9,31.0,09.1,0000.0,0001.82,0008.79,0000.85
2022-10-19 16:56:00,,0832.9,5.00,0.00,29.2,28.1,00.0,37.9,31.1,09.1,0000.0,0001.86,0008.62,0000.86
2022-10-19 16:57:00,,0832.9,5.01,0.00,29.2,28.1,00.0,37.9,31.1,09.3,0000.0,0001.88,0009.23,0000.88
2022-10-19 16:58:00,,0832.9,4.99,0.00,29.3,28.1,00.0,38.0,31.1,09.0,0000.0,0001.88,0009.86,0000.88
2022-10-19 16:59:00,,0832.9,5.01,0.00,29.3,28.2,00.0,38.0,31.1,08.9,0000.0,0001.92,0009.82,0000.89
